[[{"header":{"parameterUnit":"m.s-1","parameterCategory":1,"la1":30.2991,"la2":30.254,"lo1":-89.0895,"lo2":-89.0444,"dy":0.0017,"dx":0.0017,"nx":28,"ny":28,"refTime":"2024-04-04T21:00:00:Z","depth":0,"parameterNumber":2,"parameterNumberName":"U-component_of_WINDS"},"data":[0,0,0,0,0,0,0,0,0,0,0,0,0,0,0,0,0,0,0,0,0,0,0,0,0,0,0,0,0,0,0,0,0,0,0,0,0,0,0,0,0,0,0,0,0,0,0,0,0,0,0,0,0,0,0,0,0,0,-1.7063,-1.7063,0,-1.7084,-1.7085,-1.7085,-1.7095,-1.7095,-1.7095,-1.7095,-1.7115,-1.7116,-1.7116,0,0,0,0,0,0,0,0,0,0,0,0,0,-1.7031,-1.7032,-1.7063,-1.7063,-1.7064,-1.7084,-1.7085,-1.7085,-1.7095,-1.7095,-1.7095,-1.7095,-1.7115,-1.7116,-1.7116,0,0,0,0,0,0,0,0,0,0,0,0,0,-1.7048,-1.7032,-1.7063,-1.7071,-1.7072,-1.7084,-1.7085,-1.7085,-1.7095,-1.7095,-1.7095,-1.7095,-1.7115,-1.7116,-1.7116,-1.7122,0,0,-1.7119,-1.7119,0,0,0,0,0,0,0,0,-1.7047,-1.7049,-1.707,-1.7071,-1.7072,-1.7087,-1.7081,-1.7097,-1.7095,-1.7086,-1.7095,-1.7095,-1.7106,-1.7107,-1.7111,-1.7123,-1.7123,-1.7119,-1.7119,-1.712,-1.712,0,0,0,0,0,0,0,-1.7046,-1.7048,-1.7072,-1.707,-1.7071,-1.7074,-1.7076,-1.7084,-1.7096,-1.7087,-1.7088,-1.709,-1.7106,-1.711,-1.7112,-1.7124,-1.7119,-1.712,-1.712,-1.7121,-1.7142,-1.7142,0,0,0,0,0,0,-1.7044,-1.7047,-1.7071,-1.7072,-1.7059,-1.7074,-1.7077,-1.7082,-1.7096,-1.7098,-1.709,-1.7091,-1.7109,-1.7111,-1.7113,-1.712,-1.712,-1.7121,-1.7121,-1.7142,-1.7142,-1.7142,0,0,0,0,0,0,-1.7043,-1.7046,-1.707,-1.706,-1.7063,-1.7075,-1.7081,-1.7083,-1.7087,-1.7098,-1.71,-1.7092,-1.7109,-1.7111,-1.712,-1.7121,-1.7121,-1.7122,-1.7142,-1.7142,-1.7142,-1.7135,0,0,0,0,0,0,-1.7042,-1.7045,-1.7047,-1.706,-1.7064,-1.7077,-1.7081,-1.7083,-1.7088,-1.7089,-1.7101,-1.7103,-1.7109,-1.7118,-1.7121,-1.7122,-1.7122,-1.7142,-1.7142,-1.7142,-1.7135,-1.7135,-1.7135,0,0,0,0,0,-1.7041,-1.7044,-1.7047,-1.705,-1.7067,-1.7077,-1.7079,-1.7087,-1.7088,-1.709,-1.7098,-1.7102,-1.7121,-1.7119,-1.7122,-1.7123,-1.7142,-1.7142,-1.7142,-1.7135,-1.7135,-1.7135,0,0,0,0,0,0,-1.703,-1.7045,-1.7049,-1.7057,-1.7066,-1.7078,-1.7081,-1.7086,-1.7094,-1.7094,-1.7104,-1.7106,-1.7114,-1.712,-1.7118,-1.713,-1.7132,-1.7132,-1.7126,-1.7126,-1.7125,-1.7123,-1.7123,0,0,0,0,0,-1.7028,-1.7036,-1.7049,-1.7054,-1.7058,-1.7069,-1.7074,-1.708,-1.7089,-1.7092,-1.71,-1.7109,-1.7117,-1.7122,-1.7129,-1.7137,-1.714,-1.7139,-1.7139,-1.7139,-1.7139,-1.7144,-1.7144,-1.7143,-1.7143,-1.7143,0,0,-1.7025,-1.7035,-1.7038,-1.7052,-1.7059,-1.7067,-1.7072,-1.7079,-1.7085,-1.7093,-1.7102,-1.7108,-1.7118,-1.7126,-1.713,-1.7131,-1.714,-1.7139,-1.7139,-1.7139,-1.7144,-1.7144,-1.7144,-1.7143,-1.7143,-1.7143,0,0,-1.7023,-1.7031,-1.7036,-1.7044,-1.7056,-1.7063,-1.7065,-1.7078,-1.7082,-1.7091,-1.7098,-1.7105,-1.7118,-1.7126,-1.7131,-1.7134,-1.7138,-1.7137,-1.7135,-1.714,-1.714,-1.714,-1.7141,-1.7142,-1.7137,-1.7137,-1.7137,0,-1.7017,-1.7028,-1.7038,-1.7046,-1.7052,-1.7061,-1.7067,-1.7074,-1.7088,-1.7092,-1.7093,-1.7111,-1.7118,-1.7129,-1.713,-1.7134,-1.7136,-1.7135,-1.7139,-1.7139,-1.714,-1.7141,-1.7141,-1.7137,-1.7137,-1.7137,-1.7137,0,-1.7021,-1.7029,-1.7032,-1.7046,-1.7053,-1.7059,-1.707,-1.7076,-1.7082,-1.7089,-1.7099,-1.7109,-1.7119,-1.7122,-1.7127,-1.7134,-1.7134,-1.7137,-1.7139,-1.7139,-1.7141,-1.7141,-1.7136,-1.7136,-1.7136,-1.7136,0,0,-1.701,-1.7031,-1.7032,-1.7039,-1.7054,-1.706,-1.7068,-1.7079,-1.7084,-1.7093,-1.71,-1.7112,-1.7115,-1.7121,-1.7128,-1.7132,-1.7135,-1.7135,-1.7135,-1.7134,-1.7143,-1.714,-1.714,-1.7138,-1.7138,-1.7139,-1.7142,0,-1.7009,-1.7024,-1.7034,-1.7044,-1.7052,-1.7063,-1.7069,-1.7079,-1.7087,-1.7095,-1.7103,-1.7112,-1.7116,-1.712,-1.7125,-1.7133,-1.7136,-1.7133,-1.7144,-1.7145,-1.7141,-1.7141,-1.7138,-1.7141,-1.7143,-1.7143,-1.7143,0,-1.701,-1.7021,-1.7032,-1.7047,-1.7051,-1.7057,-1.7069,-1.7076,-1.7088,-1.7094,-1.7102,-1.7109,-1.7118,-1.712,-1.7132,-1.713,-1.7135,-1.7141,-1.7141,-1.7141,-1.7143,-1.7141,-1.7142,-1.7142,-1.7144,-1.7144,-1.7144,0,-1.7001,-1.7018,-1.7027,-1.7033,-1.7051,-1.7055,-1.7063,-1.7075,-1.7081,-1.7092,-1.7096,-1.7107,-1.7113,-1.7122,-1.7132,-1.7133,-1.7144,-1.7146,-1.7149,-1.7148,-1.7149,-1.7149,-1.715,-1.7154,-1.7154,-1.7154,-1.7154,0,-1.6999,-1.7005,-1.7024,-1.7029,-1.7037,-1.705,-1.7057,-1.7066,-1.7077,-1.7084,-1.7094,-1.7101,-1.7114,-1.7123,-1.7131,-1.7141,-1.7143,-1.7148,-1.715,-1.7147,-1.7146,-1.7149,-1.7149,-1.7154,-1.7154,-1.7154,-1.7154,0,-1.6989,-1.7002,-1.7013,-1.703,-1.7034,-1.7039,-1.7054,-1.706,-1.707,-1.7079,-1.7082,-1.7096,-1.7107,-1.7119,-1.7133,-1.7139,-1.7148,-1.7151,-1.7144,-1.7145,-1.7146,-1.7146,-1.7149,-1.715,-1.7154,-1.7154,-1.7154,0,-1.6986,-1.6992,-1.701,-1.7017,-1.7024,-1.7034,-1.7041,-1.7055,-1.7062,-1.7077,-1.7081,-1.7093,-1.7103,-1.712,-1.7132,-1.7144,-1.7147,-1.7147,-1.7148,-1.7145,-1.7146,-1.7146,-1.7147,-1.7146,-1.7146,-1.7146,-1.7146,0,-1.698,-1.6987,-1.6997,-1.701,-1.7019,-1.703,-1.7041,-1.7045,-1.7061,-1.7069,-1.708,-1.7089,-1.7104,-1.7116,-1.713,-1.7138,-1.7144,-1.7146,-1.7147,-1.7143,-1.7139,-1.7141,-1.7142,-1.7145,-1.7145,-1.7145,-1.7145,-1.7145,-1.6974,-1.6979,-1.6994,-1.7006,-1.7016,-1.7027,-1.7033,-1.7045,-1.7055,-1.7069,-1.7077,-1.7089,-1.7102,-1.7121,-1.7129,-1.7139,-1.714,-1.7142,-1.7142,-1.7142,-1.7141,-1.7138,-1.7141,-1.7141,-1.7141,-1.7141,-1.7141,0,-1.6968,-1.6978,-1.6989,-1.7005,-1.7015,-1.7022,-1.7035,-1.7042,-1.7053,-1.7065,-1.7076,-1.709,-1.7102,-1.7116,-1.7129,-1.7134,-1.7137,-1.7137,-1.7136,-1.7138,-1.7139,-1.7137,-1.7134,-1.7134,-1.7134,-1.7134,-1.7134,-1.7134,-1.6966,-1.6976,-1.6985,-1.7001,-1.7011,-1.7024,-1.7031,-1.7041,-1.7051,-1.7067,-1.7078,-1.7087,-1.71,-1.7114,-1.7126,-1.713,-1.7134,-1.7132,-1.7137,-1.7137,-1.7138,-1.7138,-1.7136,-1.7133,-1.7133,-1.7135,-1.7135,-1.7135]},{"header":{"parameterUnit":"m.s-1","parameterCategory":1,"la1":30.2991,"la2":30.254,"lo1":-89.0895,"lo2":-89.0444,"dy":0.0017,"dx":0.0017,"nx":28,"ny":28,"refTime":"2024-04-04T21:00:00:Z","depth":0,"parameterNumber":3,"parameterNumberName":"V-component_of_WINDS"},"data":[0,0,0,0,0,0,0,0,0,0,0,0,0,0,0,0,0,0,0,0,0,0,0,0,0,0,0,0,0,0,0,0,0,0,0,0,0,0,0,0,0,0,0,0,0,0,0,0,0,0,0,0,0,0,0,0,0,0,-1.9637,-1.9637,0,-1.9644,-1.9645,-1.9645,-1.9617,-1.9616,-1.9615,-1.9614,-1.9621,-1.9622,-1.9623,0,0,0,0,0,0,0,0,0,0,0,0,0,-1.9596,-1.9597,-1.9637,-1.9637,-1.9637,-1.9644,-1.9645,-1.9645,-1.9617,-1.9616,-1.9615,-1.9614,-1.962,-1.9621,-1.9623,0,0,0,0,0,0,0,0,0,0,0,0,0,-1.961,-1.9597,-1.9637,-1.9624,-1.9623,-1.9644,-1.9645,-1.9645,-1.9617,-1.9616,-1.9615,-1.9613,-1.962,-1.9621,-1.9623,-1.9656,0,0,-1.9627,-1.9628,0,0,0,0,0,0,0,0,-1.9609,-1.9611,-1.9626,-1.9625,-1.9624,-1.9628,-1.9633,-1.9649,-1.9617,-1.9619,-1.9614,-1.9613,-1.9624,-1.9625,-1.9629,-1.9657,-1.9657,-1.9627,-1.9628,-1.9629,-1.9629,0,0,0,0,0,0,0,-1.9608,-1.9611,-1.964,-1.9626,-1.9625,-1.9617,-1.9618,-1.9636,-1.9628,-1.9619,-1.9617,-1.9618,-1.9623,-1.9628,-1.9629,-1.9657,-1.9627,-1.9628,-1.9629,-1.963,-1.9713,-1.9715,0,0,0,0,0,0,-1.9609,-1.961,-1.9639,-1.964,-1.9613,-1.9619,-1.962,-1.9628,-1.9628,-1.9627,-1.9619,-1.9617,-1.9626,-1.9628,-1.9629,-1.967,-1.9629,-1.963,-1.9631,-1.9712,-1.9714,-1.9715,0,0,0,0,0,0,-1.9608,-1.9612,-1.9639,-1.9625,-1.9627,-1.9621,-1.9631,-1.9629,-1.9634,-1.9629,-1.9627,-1.9626,-1.9625,-1.9627,-1.965,-1.967,-1.9631,-1.9632,-1.9711,-1.9713,-1.9715,-1.975,0,0,0,0,0,0,-1.9607,-1.9612,-1.9625,-1.9625,-1.9628,-1.966,-1.9632,-1.963,-1.9636,-1.9633,-1.9634,-1.9633,-1.9624,-1.9648,-1.9652,-1.9671,-1.9633,-1.9709,-1.9711,-1.9714,-1.9748,-1.9753,-1.9759,0,0,0,0,0,-1.9606,-1.9634,-1.9626,-1.963,-1.9645,-1.9662,-1.9663,-1.9654,-1.9638,-1.9651,-1.9648,-1.9633,-1.9667,-1.9651,-1.9654,-1.9674,-1.9708,-1.9711,-1.9714,-1.9745,-1.9752,-1.9758,0,0,0,0,0,0,-1.9636,-1.9634,-1.9625,-1.9654,-1.9658,-1.9657,-1.9673,-1.9661,-1.967,-1.9667,-1.9653,-1.9654,-1.9679,-1.9679,-1.9661,-1.9707,-1.9684,-1.9688,-1.9707,-1.9714,-1.9719,-1.9719,-1.9634,0,0,0,0,0,-1.9646,-1.966,-1.9658,-1.9684,-1.9686,-1.9679,-1.9686,-1.9678,-1.9682,-1.9684,-1.9682,-1.9686,-1.9697,-1.9705,-1.9716,-1.9747,-1.9747,-1.9762,-1.9768,-1.9772,-1.9776,-1.9794,-1.9801,-1.9725,-1.9725,-1.9725,0,0,-1.9667,-1.9668,-1.9677,-1.969,-1.9692,-1.9707,-1.9681,-1.9698,-1.9709,-1.9686,-1.9708,-1.9707,-1.971,-1.9738,-1.975,-1.9738,-1.9797,-1.9776,-1.978,-1.9781,-1.9798,-1.9805,-1.9811,-1.9727,-1.9727,-1.9727,0,0,-1.9713,-1.9715,-1.9737,-1.974,-1.9745,-1.974,-1.9745,-1.9746,-1.9744,-1.9766,-1.975,-1.9762,-1.9782,-1.9786,-1.979,-1.9837,-1.9824,-1.9841,-1.987,-1.9887,-1.9893,-1.9899,-1.9917,-1.9923,-1.9845,-1.9845,-1.9845,0,-1.9738,-1.9761,-1.975,-1.9768,-1.9774,-1.9755,-1.9778,-1.9781,-1.9788,-1.9793,-1.9779,-1.9805,-1.9805,-1.9834,-1.9846,-1.9849,-1.9855,-1.9841,-1.9893,-1.9899,-1.9903,-1.992,-1.9927,-1.9847,-1.9847,-1.9846,-1.9846,0,-1.9792,-1.9808,-1.9826,-1.9834,-1.9842,-1.9862,-1.9854,-1.9863,-1.9855,-1.9851,-1.9874,-1.9874,-1.9885,-1.989,-1.9882,-1.9918,-1.9911,-1.9896,-1.9873,-1.9913,-1.9929,-1.9935,-1.985,-1.9849,-1.9848,-1.9848,0,0,-1.9858,-1.9861,-1.9867,-1.9871,-1.9875,-1.9887,-1.9906,-1.9917,-1.9925,-1.9931,-1.9947,-1.9964,-1.9951,-1.9956,-1.9947,-1.9962,-2.0001,-1.9945,-1.9945,-1.9956,-2.0042,-2.0055,-2.0062,-1.9992,-1.9993,-1.9994,-2.0042,0,-1.9905,-1.9939,-1.993,-1.9964,-1.9979,-1.996,-1.9977,-1.9981,-1.9978,-1.999,-1.9986,-1.9999,-1.9979,-1.9983,-1.9996,-1.9993,-2.0018,-1.9989,-2.0007,-2.0008,-2.0009,-2.007,-2.0084,-2.0129,-2.0048,-2.0049,-2.005,0,-1.9963,-1.9972,-2.0008,-2.001,-2.0016,-2.0031,-2.0041,-2.0052,-2.0056,-2.0053,-2.0059,-2.0047,-2.0066,-2.0042,-2.0068,-2.0049,-2.0055,-2.0055,-2.0056,-2.0059,-2.0033,-2.0076,-2.0144,-2.0151,-2.006,-2.0059,-2.0058,0,-2.001,-2.003,-2.0055,-2.0059,-2.0061,-2.0072,-2.0074,-2.0076,-2.0083,-2.0091,-2.0096,-2.0106,-2.0111,-2.0119,-2.011,-2.0093,-2.0138,-2.0113,-2.0136,-2.0137,-2.0148,-2.0147,-2.0219,-2.015,-2.015,-2.0149,-2.0149,0,-2.0063,-2.0086,-2.0076,-2.0091,-2.0116,-2.0105,-2.013,-2.0129,-2.0132,-2.0146,-2.013,-2.0144,-2.0131,-2.0143,-2.0136,-2.016,-2.0162,-2.016,-2.0158,-2.0162,-2.0163,-2.0167,-2.0165,-2.0151,-2.0151,-2.0151,-2.015,0,-2.012,-2.0113,-2.0139,-2.0139,-2.014,-2.0159,-2.0158,-2.0172,-2.0168,-2.0187,-2.019,-2.0184,-2.0198,-2.019,-2.0204,-2.0199,-2.023,-2.0223,-2.0229,-2.0228,-2.0252,-2.0251,-2.033,-2.0341,-2.0264,-2.0264,-2.0265,0,-2.0155,-2.0173,-2.0175,-2.0184,-2.0187,-2.0201,-2.0209,-2.0198,-2.0206,-2.0212,-2.0226,-2.0238,-2.0248,-2.0271,-2.0268,-2.0278,-2.0272,-2.03,-2.0274,-2.0278,-2.0274,-2.0274,-2.0276,-2.0305,-2.0306,-2.0307,-2.0307,0,-2.0219,-2.0215,-2.0227,-2.0239,-2.0249,-2.0257,-2.0263,-2.0271,-2.026,-2.0271,-2.0286,-2.0293,-2.0308,-2.0321,-2.033,-2.0331,-2.0318,-2.0315,-2.0322,-2.0327,-2.033,-2.033,-2.0245,-2.0314,-2.0313,-2.0313,-2.0312,-2.0312,-2.0267,-2.0282,-2.0287,-2.0301,-2.0305,-2.0311,-2.0325,-2.0323,-2.0335,-2.0347,-2.0339,-2.0357,-2.036,-2.0371,-2.0374,-2.0387,-2.0376,-2.0385,-2.0387,-2.039,-2.0394,-2.0327,-2.0388,-2.0388,-2.0388,-2.0388,-2.0387,0,-2.0331,-2.0333,-2.0346,-2.0357,-2.0368,-2.0355,-2.0361,-2.0372,-2.0388,-2.0392,-2.0402,-2.0419,-2.0432,-2.0429,-2.0441,-2.0452,-2.0446,-2.0455,-2.0455,-2.0456,-2.0402,-2.0397,-2.046,-2.046,-2.046,-2.046,-2.046,-2.046,-2.0366,-2.0392,-2.0389,-2.0416,-2.0417,-2.0435,-2.044,-2.0446,-2.045,-2.047,-2.0481,-2.0479,-2.048,-2.0492,-2.0503,-2.0502,-2.0507,-2.0519,-2.0516,-2.0466,-2.0459,-2.0453,-2.0447,-2.052,-2.052,-2.0568,-2.0569,-2.0569]}]]